DW8913 Weather Reports


time (UTC)temp
C
wind
direction
speed
KPH
gust
KPH
rain 1hr
cm
rain 24hr
cm
rain mn
cm
humidity
%
barometer
mb
20260903023100 23 208 0.0 4.8 0.00 0.23 0.05 90 1017.0
20260903021521 23 356 0.0 6.4 0.00 0.23 0.05 90 1017.0
20260903020058 23 201 1.6 4.8 0.00 0.23 0.05 90 1017.0
20260903014527 23 197 1.6 8.0 0.00 0.23 0.05 90 1017.1
20260903013126 23 358 1.6 6.4 0.00 0.23 0.05 89 1016.9
20260903011555 23 212 0.0 3.2 0.00 0.23 0.05 89 1017.2
20260903010008 23 224 0.0 4.8 0.00 0.23 0.05 89 1017.3
20260903004549 23 196 1.6 8.0 0.00 0.23 0.05 89 1017.3
20260903003015 23 7 0.0 6.4 0.00 0.23 0.05 89 1016.9
20260903001557 23 181 0.0 8.0 0.00 0.23 0.05 89 1016.8
20260903000040 23 219 0.0 8.0 0.00 0.23 0.05 89 1017.2
20260902234508 23 215 0.0 12.9 0.00 0.23 0.05 88 1017.0
20260902233052 23 206 3.2 8.0 0.00 0.23 0.05 89 1016.9
20260902231519 23 233 1.6 8.0 0.00 0.23 0.05 88 1016.8
20260902230108 23 213 1.6 11.3 0.00 0.23 0.05 88 1016.8
20260902224545 24 191 1.6 8.0 0.00 0.23 0.05 88 1017.0
20260902223020 24 228 1.6 6.4 0.00 0.23 0.05 88 1017.0
20260902221552 24 118 1.6 6.4 0.00 0.23 0.05 87 1017.1
20260902220035 24 181 0.0 8.0 0.00 0.23 0.05 87 1017.2
20260902214613 24 214 1.6 6.4 0.00 0.23 0.05 87 1017.4
20260902213034 24 5 1.6 8.0 0.03 0.23 0.05 87 1017.5
20260902211502 23 219 1.6 11.3 0.03 0.23 0.05 87 1017.3
20260902210046 23 213 1.6 8.0 0.03 0.23 0.05 88 1017.2
20260902204514 23 335 1.6 9.7 0.03 0.23 0.05 88 1017.2
20260902203048 23 359 3.2 14.5 0.03 0.20 0.03 88 1016.5
20260902201530 23 268 3.2 9.7 0.03 0.20 0.03 87 1016.9
20260902200057 23 191 1.6 9.7 0.03 0.20 0.03 87 1016.9
20260902194524 24 16 3.2 9.7 0.03 0.20 0.03 86 1017.3
20260902193108 24 64 1.6 6.4 0.00 0.18 0.00 83 1017.0
20260902191542 25 49 0.0 6.4 0.00 0.18 0.00 82 1017.9
20260902190006 25 224 3.2 9.7 0.00 0.18 0.00 80 1018.3
20260902184548 26 82 1.6 8.0 0.00 0.18 0.00 78 1018.6
20260902183020 26 296 1.6 6.4 0.00 0.18 0.00 76 1018.8
20260902181559 26 209 1.6 11.3 0.00 0.18 0.00 77 1018.9
20260902180031 27 239 1.6 11.3 0.00 0.18 0.00 78 1018.9
20260902174603 27 223 3.2 11.3 0.00 0.18 0.00 76 1018.9
20260902173047 27 40 3.2 12.9 0.00 0.18 0.00 76 1018.6
20260902171627 27 203 3.2 11.3 0.00 0.18 0.00 77 1018.5
20260902170044 27 216 3.2 11.3 0.00 0.18 0.00 76 1018.5
20260902164510 27 136 4.8 11.3 0.00 0.18 0.00 76 1018.3
20260902163052 27 194 3.2 9.7 0.00 0.18 0.00 76 1018.1
20260902161521 27 274 1.6 8.0 0.00 0.18 0.00 75 1018.4
20260902160107 27 99 0.0 8.0 0.00 0.18 0.00 76 1018.4
20260902154542 27 20 1.6 8.0 0.00 0.18 0.00 77 1018.3
20260902153112 26 225 3.2 8.0 0.00 0.18 0.00 77 1018.5
20260902151544 26 153 3.2 11.3 0.00 0.18 0.00 81 1018.8
20260902150021 25 258 4.8 12.9 0.00 0.18 0.00 80 1018.8
20260902144603 26 235 4.8 17.7 0.00 0.18 0.00 80 1018.7
20260902143027 26 240 3.2 12.9 0.00 0.18 0.00 81 1018.6
20260902141502 26 41 4.8 14.5 0.00 0.18 0.00 82 1018.5
20260902140046 25 351 1.6 14.5 0.00 0.18 0.00 84 1018.4
20260902134519 25 175 3.2 11.3 0.00 0.18 0.00 84 1018.1
20260902133102 25 221 3.2 9.7 0.00 0.18 0.00 84 1018.0
20260902131528 25 234 3.2 14.5 0.00 0.18 0.00 84 1017.7
20260902130109 25 7 3.2 14.5 0.00 0.18 0.00 85 1017.6
20260902124535 25 233 3.2 9.7 0.00 0.18 0.00 85 1017.6
20260902123006 25 271 0.0 9.7 0.00 0.18 0.00 87 1017.6
20260902121548 24 248 3.2 8.0 0.00 0.18 0.00 88 1017.6
20260902120014 23 136 1.6 4.8 0.00 0.18 0.00 89 1017.7
20260902114553 23 354 1.6 14.5 0.00 0.18 0.00 90 1017.6
20260902113024 23 344 1.6 9.7 0.00 0.18 0.00 90 1017.4
20260902111613 23 10 1.6 9.7 0.00 0.18 0.00 91 1017.2
20260902110051 23 213 1.6 11.3 0.00 0.18 0.00 91 1017.1
20260902104515 23 257 0.0 6.4 0.00 0.18 0.00 92 1016.9
20260902103048 23 346 3.2 8.0 0.00 0.18 0.00 93 1016.8
20260902101515 23 278 0.0 3.2 0.00 0.18 0.00 94 1016.6
20260902100056 22 349 0.0 3.2 0.00 0.18 0.00 94 1016.7
20260902094526 22 224 0.0 4.8 0.00 0.18 0.00 94 1016.7
20260902093108 22 119 0.0 3.2 0.00 0.18 0.00 93 1016.5
20260902091534 22 241 0.0 4.8 0.00 0.18 0.00 93 1016.4
20260902090010 22 34 0.0 4.8 0.00 0.18 0.00 93 1016.5
20260902084550 22 36 0.0 8.0 0.00 0.18 0.00 93 1016.4
20260902083020 22 267 1.6 6.4 0.00 0.18 0.00 93 1016.3
20260902081558 22 238 1.6 6.4 0.00 0.18 0.00 93 1016.1
20260902080029 22 163 1.6 4.8 0.00 0.18 0.00 92 1016.0
20260902074605 22 279 0.0 4.8 0.00 0.18 0.00 91 1016.0
20260902073045 22 60 0.0 6.4 0.00 0.18 0.00 90 1015.6
20260902071511 22 187 0.0 8.0 0.00 0.18 0.00 90 1015.7
20260902070054 22 243 1.6 4.8 0.00 0.18 0.00 90 1015.7
20260902064536 22 265 0.0 4.8 0.00 0.18 0.00 90 1015.8
20260902063108 22 44 0.0 3.2 0.00 0.18 0.00 90 1015.6
20260902061541 22 305 0.0 6.4 0.00 0.18 0.00 89 1015.8
20260902060009 23 44 0.0 1.6 0.00 0.18 0.00 89 1015.9
20260902054554 23 215 0.0 4.8 0.00 0.18 0.00 88 1015.5
20260902053022 23 85 0.0 1.6 0.00 0.18 0.00 88 1015.3
20260902051610 23 34 0.0 3.2 0.00 0.18 0.00 88 1015.6
20260902050040 23 153 0.0 0.0 0.00 0.18 0.00 87 1015.6
20260902044508 23 116 0.0 3.2 0.00 0.18 0.00 86 1015.4
20260902043048 23 175 0.0 6.4 0.00 0.18 0.00 86 1015.3
20260902041533 23 160 0.0 3.2 0.00 0.18 0.00 86 1015.6
20260902040052 23 160 1.6 6.4 0.00 0.18 0.00 85 1016.0
20260902034521 22 164 0.0 3.2 0.00 0.18 0.18 87 1015.8
20260902033102 22 33 0.0 4.8 0.03 0.18 0.18 87 1015.8
20260902031529 22 228 1.6 9.7 0.18 0.18 0.18 88 1016.3
20260902030110 22 197 1.6 8.0 0.18 0.18 0.18 89 1016.2
20260902024648 22 6 4.8 12.9 0.18 0.18 0.18 89 1016.8